Location: Niagara
(43.2500°N, 79.0670°W)
Time: 04:13:03
(UTC-05:00)

Vanguard 2 - All Passes

Search period start: 13 December 2017 00:00
Search period end: 23 December 2017 00:00
Orbit: 553 x 2939 km, 32.9° (Epoch: 12 December)

Date Brightness Start Highest point End Pass type
(mag) Time Alt. Az. Time Alt. Az. Time Alt. Az.
13 Dec - 13:59:39 10° S 14:03:58 14° SSE 14:07:28 10° SE daylight
13 Dec - 16:07:02 10° SW 16:12:23 24° S 16:16:19 10° ESE daylight
13 Dec - 18:16:19 10° WSW 18:20:07 22° S 18:23:18 10° SE visible
14 Dec - 14:16:00 10° SSW 14:22:00 19° SSE 14:26:27 10° ESE daylight
14 Dec - 16:24:43 10° SW 16:30:20 27° S 16:34:23 10° ESE daylight
14 Dec - 18:34:28 10° WSW 18:37:57 19° SSW 18:40:57 10° SSE visible
15 Dec - 12:27:17 10° S 12:31:00 12° SSE 12:34:14 10° SE daylight
15 Dec - 14:33:01 10° SW 14:40:01 24° SSE 14:44:56 10° ESE daylight
15 Dec - 16:42:35 10° WSW 16:48:15 28° S 16:52:20 10° SE daylight
15 Dec - 18:52:49 10° WSW 18:55:44 16° SSW 18:58:20 10° SSE visible
16 Dec - 12:42:22 10° SSW 12:49:04 17° SSE 12:54:13 10° ESE daylight
16 Dec - 14:50:24 10° SW 14:58:01 29° S 15:03:09 10° ESE daylight
16 Dec - 17:00:34 10° WSW 17:06:09 28° S 17:10:10 10° SE daylight
16 Dec - 19:11:37 10° SW 19:13:28 12° SSW 19:15:12 10° S visible
17 Dec - 12:58:44 10° SSW 13:07:07 23° SSE 13:13:06 10° ESE daylight
17 Dec - 15:08:04 10° SW 15:16:01 33° S 15:21:15 10° ESE daylight
17 Dec - 17:18:41 10° WSW 17:23:59 26° SSW 17:27:54 10° SE visible
18 Dec - 11:09:42 10° S 11:15:36 14° SSE 11:20:33 10° SE daylight
18 Dec - 13:15:40 10° SW 13:25:09 28° SSE 13:31:35 10° ESE daylight
18 Dec - 15:25:54 10° WSW 15:33:58 35° S 15:39:12 10° ESE daylight
18 Dec - 17:36:54 10° WSW 17:41:47 23° SSW 17:45:28 10° SSE visible
19 Dec - 11:24:50 10° SSW 11:33:37 19° SSE 11:40:23 10° ESE daylight
19 Dec - 13:32:59 10° SW 13:43:11 33° S 13:49:49 10° ESE daylight
19 Dec - 15:43:53 10° WSW 15:51:54 36° S 15:57:05 10° ESE daylight
19 Dec - 17:55:19 10° WSW 17:59:30 19° SSW 18:02:49 10° SSE visible
20 Dec - 11:41:03 10° SSW 11:51:39 25° SSE 11:59:19 10° ESE daylight
20 Dec - 13:50:35 10° SW 14:01:11 38° S 14:07:55 10° ESE daylight
20 Dec - 16:01:58 10° WSW 16:09:47 35° SSW 16:14:53 10° SE daylight
20 Dec - 18:14:05 10° WSW 18:17:08 14° SSW 18:19:43 10° S visible
21 Dec - 09:52:30 10° S 09:59:40 15° SSE 10:05:51 10° ESE daylight
21 Dec - 11:57:51 10° SW 12:09:41 31° SSE 12:17:50 10° ESE daylight
21 Dec - 14:08:24 10° WSW 14:19:11 41° S 14:25:55 10° ESE daylight
21 Dec - 16:20:09 10° WSW 16:27:37 32° SSW 16:32:35 10° SE daylight
22 Dec - 10:07:23 10° S 10:17:38 20° SSE 10:25:51 10° ESE daylight
22 Dec - 12:15:04 10° SW 12:27:43 37° SSE 12:36:08 10° ESE daylight
22 Dec - 14:26:21 10° WSW 14:37:09 43° S 14:43:50 10° ESE daylight
22 Dec - 16:38:26 10° WSW 16:45:21 28° SSW 16:50:06 10° SSE daylight
